Skip Page Navigation
NASA JPL Caltech
NASA Logo - Jet Propulsion Laboratory + View the NASA Portal
+ Near-Earth Object (NEO) Program
Search JPL
JPL Home Earth Solar System Stars & Galaxies Technology
JPL Solar System Dynamics
BODIES ORBITS EPHEMERIDES TOOLS PHYSICAL DATA DISCOVERY FAQ SITE MAP
JPL Small-Body Database Browser
Search: [ help ]  
23244 Lafayette (2000 WP162)
Classification: Main-belt Asteroid          SPK-ID: 2023244
Ephemeris | Orbit Diagram | Orbital Elements | Physical Parameters | Discovery Circumstances ]

[ hide orbit diagram ]
Orbit Diagram
Note: Make sure you have Java enabled on your browser to see the applet. This applet is provided as a 3D orbit visualization tool. The applet was implemented using 2-body methods, and hence should not be used for determining accurate long-term trajectories (over several years or decades) or planetary encounter circumstances. For accurate long-term ephemerides, please instead use our Horizons system.
Orbit Viewer

Additional Notes: the orbits shown in the applet are color coded. The planets are white lines, and the asteroid/comet is a blue line. The bright white line indicates the portion of the orbit that is above the ecliptic plane, and the darker portion is below the ecliptic plane. Likewise for the asteroid/comet orbit, the light blue indicates the portion above the ecliptic plane, and the dark blue the portion below the ecliptic plane.

Orbit Viewer applet originally written and kindly provided by Osamu Ajiki (AstroArts), and further modified by Ron Baalke (JPL).


Orbital Elements at Epoch 2456400.5 (2013-Apr-18.0) TDB
Reference: MPO233650 (heliocentric ecliptic J2000)
 Element Value Uncertainty (1-sigma)   Units 
e 0.2022349 n/a  
a 2.7089394 n/a AU
q 2.1610973 n/a AU
i 13.57889 n/a deg
node 130.79672 n/a deg
peri 249.75922 n/a deg
M 312.35046 n/a deg
tp 2456616.0527541
(2013-Nov-19.55275410)
n/a JED
period 1628.5360040
4.46
n/a
n/a
d
yr
n 0.22105744 n/a deg/d
Q 3.2567815 n/a AU
  Orbit Determination Parameters
   # obs. used (total)      375  
   first obs. used      1997-??-??  
   last obs. used      2012-06-19  
   # oppositions      12  
   planetary ephem.      DE403  
   condition code      0  
   fit RMS      0.59  
   data source      MPC:mpn  
   producer      MPCLINUX  

Additional Information
 T_jup = 3.295 

Ephemeris | Orbit Diagram | Orbital Elements | Physical Parameters | Discovery Circumstances ]

Physical Parameter Table
Parameter Symbol Value Units Sigma Reference Notes
absolute magnitude H 14.5 mag n/a PDS3 (MPO 10253)  

23244 Lafayette           Discovered 2000 Nov. 20 by the Lowell Observatory Near-Earth Object Search at the Anderson Mesa Station.
Recognized as a symbolic figure of French-American friendship, Marie-Josephe Paul Yves Roch Gilbert du Motier, Marquis de La Fayette (1757-1834), on his own initiative served as a general in the Continental Army during the American Revolution and as commander-in-chief of the Garde Nationale during the French Revolution.
NOTE: some special characters may not display properly (any characters within {} are an attempt to place the proper accent above a character)
Reference: 20100527/MPCPages.arcLast Updated: 2010-12-06

Alternate Designations
 2000 WP162 = 1997 CG27 
Ephemeris | Orbit Diagram | Orbital Elements | Physical Parameters | Discovery Circumstances ]
ABOUT SSD CREDITS/AWARDS PRIVACY/COPYRIGHT GLOSSARY LINKS
FirstGov 2013-May-23 11:14 UT
(server date/time)  
NASA Home Page
Site Manager:   Donald K. Yeomans
Webmaster  Alan B. Chamberlin